Time,TemperatureF,DewpointF,PressureIn,WindDirection,WindDirectionDegrees,WindSpeedMPH,WindSpeedGustMPH,Humidity,HourlyPrecipIn,Conditions,Clouds,dailyrainin,SoftwareType,DateUTC
2013-04-28 00:03:00,42.0,-99.9,30.47,South,170,0.0,13.0,96,0.02,,,-99.99,,2013-04-28 04:03:00,
2013-04-28 00:13:00,42.0,41.0,30.47,South,170,0.0,13.0,96,0.02,,,-99.99,,2013-04-28 04:13:00,
2013-04-28 00:23:00,42.0,41.0,30.47,South,170,0.0,13.0,96,0.02,,,-99.99,,2013-04-28 04:23:00,
2013-04-28 00:32:00,42.0,41.0,30.46,SW,225,4.0,15.0,96,0.02,,,-99.99,,2013-04-28 04:32:00,
2013-04-28 00:43:00,42.0,41.0,30.46,SW,225,4.0,15.0,96,0.02,,,-99.99,,2013-04-28 04:43:00,
2013-04-28 00:53:00,42.0,41.0,30.46,South,183,7.0,10.0,96,0.01,,,-99.99,,2013-04-28 04:53:00,
2013-04-28 01:02:00,42.0,41.0,30.46,South,183,7.0,10.0,96,0.01,,,-99.99,,2013-04-28 05:02:00,
2013-04-28 01:12:00,42.0,41.0,30.46,South,183,7.0,10.0,96,0.01,,,-99.99,,2013-04-28 05:12:00,
2013-04-28 01:22:00,42.0,41.0,30.46,South,180,10.0,14.0,96,0.01,,,-99.99,,2013-04-28 05:22:00,
2013-04-28 01:32:00,42.0,41.0,30.46,South,180,10.0,14.0,96,0.01,,,-99.99,,2013-04-28 05:32:00,
2013-04-28 01:42:00,42.0,41.0,30.46,South,180,10.0,14.0,96,0.01,,,-99.99,,2013-04-28 05:42:00,
2013-04-28 01:52:00,42.0,41.0,30.46,South,180,10.0,14.0,96,0.01,,,-99.99,,2013-04-28 05:52:00,
2013-04-28 02:01:00,42.0,41.0,30.44,SSW,195,14.0,18.0,96,0.01,,,-99.99,,2013-04-28 06:01:00,
2013-04-28 02:13:00,42.0,41.0,30.44,SSW,195,14.0,18.0,96,0.01,,,-99.99,,2013-04-28 06:13:00,
2013-04-28 02:21:00,42.0,41.0,30.44,SSW,195,14.0,18.0,96,0.01,,,-99.99,,2013-04-28 06:21:00,
2013-04-28 02:32:00,42.0,41.0,30.44,SSW,195,14.0,18.0,96,0.01,,,-99.99,,2013-04-28 06:32:00,
2013-04-28 02:42:00,42.0,41.0,30.44,SSW,195,14.0,18.0,96,0.01,,,-99.99,,2013-04-28 06:42:00,
2013-04-28 02:52:00,42.0,41.0,30.42,SSW,203,8.0,14.0,95,0.00,,,-99.99,,2013-04-28 06:52:00,
2013-04-28 03:02:00,42.0,41.0,30.41,South,176,7.0,12.0,95,0.01,,,-99.99,,2013-04-28 07:02:00,
2013-04-28 03:11:00,42.0,41.0,30.41,South,176,7.0,12.0,95,0.01,,,-99.99,,2013-04-28 07:11:00,
2013-04-28 03:21:00,42.0,41.0,30.41,South,176,7.0,12.0,95,0.01,,,-99.99,,2013-04-28 07:21:00,
2013-04-28 03:32:00,42.0,41.0,30.41,WNW,291,7.0,19.0,95,0.01,,,-99.99,,2013-04-28 07:32:00,
2013-04-28 03:42:00,42.0,41.0,30.41,WNW,291,7.0,19.0,95,0.01,,,-99.99,,2013-04-28 07:42:00,
2013-04-28 03:52:00,42.0,41.0,30.42,SSW,195,17.0,17.0,95,0.01,,,-99.99,,2013-04-28 07:52:00,
2013-04-28 04:02:00,42.0,41.0,30.42,SSW,195,17.0,17.0,95,0.01,,,-99.99,,2013-04-28 08:02:00,
2013-04-28 04:11:00,42.0,41.0,30.42,SSW,195,17.0,17.0,95,0.01,,,-99.99,,2013-04-28 08:11:00,
2013-04-28 04:21:00,40.0,39.0,30.41,SSW,204,11.0,17.0,95,0.00,,,-99.99,,2013-04-28 08:21:00,
2013-04-28 04:32:00,40.0,39.0,30.40,SSW,193,14.0,18.0,95,0.00,,,-99.99,,2013-04-28 08:32:00,
2013-04-28 04:42:00,40.0,39.0,30.40,SSW,193,14.0,18.0,95,0.00,,,-99.99,,2013-04-28 08:42:00,
2013-04-28 04:52:00,40.0,39.0,30.41,South,190,10.0,15.0,95,0.00,,,-99.99,,2013-04-28 08:52:00,
2013-04-28 05:01:00,40.0,39.0,30.41,South,190,10.0,15.0,95,0.00,,,-99.99,,2013-04-28 09:01:00,
2013-04-28 05:12:00,40.0,39.0,30.41,South,190,10.0,15.0,95,0.00,,,-99.99,,2013-04-28 09:12:00,
2013-04-28 05:21:00,40.0,39.0,30.41,South,190,10.0,15.0,95,0.00,,,-99.99,,2013-04-28 09:21:00,
2013-04-28 05:33:00,39.0,38.0,30.39,SSW,207,9.0,20.0,95,0.00,,,-99.99,,2013-04-28 09:33:00,
2013-04-28 05:42:00,39.0,38.0,30.39,SSW,207,9.0,20.0,95,0.00,,,-99.99,,2013-04-28 09:42:00,
2013-04-28 05:53:00,39.0,37.0,30.40,SW,218,4.0,20.0,94,0.00,,,-99.99,,2013-04-28 09:53:00,
2013-04-28 06:03:00,39.0,37.0,30.39,South,187,13.0,19.0,93,0.00,,,-99.99,,2013-04-28 10:03:00,
2013-04-28 06:12:00,39.0,37.0,30.39,South,187,13.0,19.0,93,0.00,,,-99.99,,2013-04-28 10:12:00,
2013-04-28 06:22:00,39.0,37.0,30.39,South,187,13.0,19.0,93,0.00,,,-99.99,,2013-04-28 10:22:00,
2013-04-28 06:32:00,39.0,37.0,30.38,SSW,194,9.0,15.0,94,0.00,,,-99.99,,2013-04-28 10:32:00,
2013-04-28 06:42:00,39.0,37.0,30.38,SSW,194,9.0,15.0,94,0.00,,,-99.99,,2013-04-28 10:42:00,
2013-04-28 06:53:00,39.0,37.0,30.38,SSW,198,15.0,17.0,94,0.01,,,-99.99,,2013-04-28 10:53:00,
2013-04-28 07:02:00,39.0,37.0,30.37,SSW,194,14.0,15.0,94,0.01,,,-99.99,,2013-04-28 11:02:00,
2013-04-28 07:11:00,39.0,37.0,30.37,SSW,194,14.0,15.0,94,0.01,,,-99.99,,2013-04-28 11:11:00,
2013-04-28 07:22:00,39.0,38.0,30.37,South,188,9.0,18.0,95,0.01,,,-99.99,,2013-04-28 11:22:00,
2013-04-28 07:32:00,39.0,38.0,30.38,SSW,211,7.0,14.0,96,0.01,,,-99.99,,2013-04-28 11:32:00,
2013-04-28 07:42:00,39.0,38.0,30.38,SSW,211,7.0,14.0,96,0.01,,,-99.99,,2013-04-28 11:42:00,
2013-04-28 07:52:00,39.0,38.0,30.38,SSW,204,4.0,12.0,96,0.00,,,-99.99,,2013-04-28 11:52:00,
2013-04-28 08:02:00,39.0,38.0,30.38,SSW,204,4.0,12.0,96,0.00,,,-99.99,,2013-04-28 12:02:00,
2013-04-28 08:12:00,39.0,38.0,30.38,SSW,204,4.0,12.0,96,0.00,,,-99.99,,2013-04-28 12:12:00,
2013-04-28 08:21:00,39.0,38.0,30.39,SSW,200,6.0,13.0,96,0.00,,,-99.99,,2013-04-28 12:21:00,
2013-04-28 08:32:00,39.0,38.0,30.39,SSW,200,6.0,13.0,96,0.00,,,-99.99,,2013-04-28 12:32:00,
2013-04-28 08:42:00,39.0,38.0,30.39,SSW,200,6.0,13.0,96,0.00,,,-99.99,,2013-04-28 12:42:00,
2013-04-28 08:52:00,39.0,38.0,30.39,SSE,163,14.0,21.0,97,0.01,,,-99.99,,2013-04-28 12:52:00,
2013-04-28 09:02:00,39.0,38.0,30.40,WSW,239,4.0,11.0,97,0.03,,,-99.99,,2013-04-28 13:02:00,
2013-04-28 09:11:00,39.0,38.0,30.40,WSW,239,4.0,11.0,97,0.03,,,-99.99,,2013-04-28 13:11:00,
2013-04-28 09:21:00,39.0,38.0,30.40,WSW,239,4.0,11.0,97,0.03,,,-99.99,,2013-04-28 13:21:00,
2013-04-28 09:32:00,39.0,38.0,30.40,WSW,239,4.0,11.0,97,0.03,,,-99.99,,2013-04-28 13:32:00,
2013-04-28 09:42:00,39.0,38.0,30.40,WSW,239,4.0,11.0,97,0.03,,,-99.99,,2013-04-28 13:42:00,
2013-04-28 10:02:00,39.0,38.0,30.41,NW,319,0.0,0.0,97,0.09,,,-99.99,,2013-04-28 14:02:00,
2013-04-28 10:11:00,39.0,38.0,30.41,NW,319,0.0,0.0,97,0.09,,,-99.99,,2013-04-28 14:11:00,
2013-04-28 10:22:00,39.0,38.0,30.41,NW,319,0.0,0.0,97,0.07,,,-99.99,,2013-04-28 14:22:00,
2013-04-28 10:32:00,40.0,39.0,30.42,NW,323,1.0,4.0,96,0.12,,,-99.99,,2013-04-28 14:32:00,
2013-04-28 10:42:00,40.0,39.0,30.42,NW,323,1.0,4.0,96,0.12,,,-99.99,,2013-04-28 14:42:00,
2013-04-28 10:52:00,40.0,39.0,30.42,WNW,283,1.0,3.0,96,0.16,,,-99.99,,2013-04-28 14:52:00,
2013-04-28 11:02:00,40.0,39.0,30.39,SE,146,6.0,6.0,96,0.21,,,-99.99,,2013-04-28 15:02:00,
2013-04-28 11:12:00,40.0,39.0,30.39,SE,146,6.0,6.0,96,0.21,,,-99.99,,2013-04-28 15:12:00,
2013-04-28 11:21:00,41.0,40.0,30.39,SE,142,6.0,11.0,96,0.22,,,-99.99,,2013-04-28 15:21:00,
2013-04-28 11:32:00,41.0,40.0,30.39,SE,142,6.0,11.0,96,0.22,,,-99.99,,2013-04-28 15:32:00,
2013-04-28 11:42:00,41.0,40.0,30.39,SE,142,6.0,11.0,96,0.22,,,-99.99,,2013-04-28 15:42:00,
2013-04-28 11:53:00,41.0,40.0,30.39,SE,142,6.0,11.0,96,0.22,,,-99.99,,2013-04-28 15:53:00,
2013-04-28 12:03:00,43.0,42.0,30.41,West,266,3.0,7.0,96,0.05,,,-99.99,,2013-04-28 16:03:00,
2013-04-28 12:13:00,43.0,42.0,30.41,West,266,3.0,7.0,96,0.05,,,-99.99,,2013-04-28 16:13:00,
2013-04-28 12:23:00,43.0,42.0,30.41,SW,236,7.0,9.0,96,0.06,,,-99.99,,2013-04-28 16:23:00,
2013-04-28 12:33:00,43.0,42.0,30.41,SSW,208,4.0,7.0,96,0.09,,,-99.99,,2013-04-28 16:33:00,
2013-04-28 12:42:00,43.0,42.0,30.41,SSW,208,4.0,7.0,96,0.09,,,-99.99,,2013-04-28 16:42:00,
2013-04-28 12:52:00,43.0,42.0,30.41,NNW,329,0.0,7.0,96,0.14,,,-99.99,,2013-04-28 16:52:00,
2013-04-28 13:02:00,44.0,43.0,30.42,West,270,0.0,4.0,96,0.22,,,-99.99,,2013-04-28 17:02:00,
2013-04-28 13:12:00,44.0,43.0,30.42,West,270,0.0,4.0,96,0.22,,,-99.99,,2013-04-28 17:12:00,
2013-04-28 13:22:00,43.0,42.0,30.41,West,260,0.0,5.0,96,0.25,,,-99.99,,2013-04-28 17:22:00,
2013-04-28 13:32:00,44.0,43.0,30.39,NNE,15,0.0,2.0,95,0.26,,,-99.99,,2013-04-28 17:32:00,
2013-04-28 13:42:00,44.0,43.0,30.39,NNE,15,0.0,2.0,95,0.26,,,-99.99,,2013-04-28 17:42:00,
2013-04-28 13:52:00,44.0,43.0,30.39,West,269,0.0,4.0,95,0.24,,,-99.99,,2013-04-28 17:52:00,
2013-04-28 14:02:00,45.0,44.0,30.37,WNW,302,0.0,5.0,95,0.17,,,-99.99,,2013-04-28 18:02:00,
2013-04-28 14:12:00,45.0,44.0,30.37,WNW,302,0.0,5.0,95,0.17,,,-99.99,,2013-04-28 18:12:00,
2013-04-28 14:22:00,45.0,44.0,30.37,WNW,302,0.0,5.0,95,0.17,,,-99.99,,2013-04-28 18:22:00,
2013-04-28 14:32:00,46.0,44.0,30.37,NW,318,0.0,7.0,94,0.06,,,-99.99,,2013-04-28 18:32:00,
2013-04-28 14:42:00,46.0,44.0,30.37,NW,318,0.0,7.0,94,0.06,,,-99.99,,2013-04-28 18:42:00,
2013-04-28 14:52:00,46.0,44.0,30.37,NW,318,0.0,7.0,94,0.06,,,-99.99,,2013-04-28 18:52:00,
2013-04-28 15:02:00,46.0,44.0,30.36,WSW,242,0.0,4.0,94,0.02,,,-99.99,,2013-04-28 19:02:00,
2013-04-28 15:11:00,46.0,44.0,30.36,WSW,242,0.0,4.0,94,0.02,,,-99.99,,2013-04-28 19:11:00,
2013-04-28 15:22:00,46.0,44.0,30.36,WSW,242,0.0,4.0,94,0.02,,,-99.99,,2013-04-28 19:22:00,
2013-04-28 15:32:00,46.0,44.0,30.35,South,181,2.0,6.0,94,0.03,,,-99.99,,2013-04-28 19:32:00,
2013-04-28 15:42:00,46.0,44.0,30.35,South,181,2.0,6.0,94,0.03,,,-99.99,,2013-04-28 19:42:00,
2013-04-28 15:52:00,46.0,45.0,30.35,SE,134,0.0,5.0,95,0.04,,,-99.99,,2013-04-28 19:52:00,
2013-04-28 16:02:00,45.0,44.0,30.35,ESE,115,0.0,4.0,95,0.04,,,-99.99,,2013-04-28 20:02:00,
2013-04-28 16:12:00,45.0,44.0,30.35,ESE,115,0.0,4.0,95,0.04,,,-99.99,,2013-04-28 20:12:00,
2013-04-28 16:22:00,45.0,44.0,30.35,ESE,115,0.0,4.0,95,0.04,,,-99.99,,2013-04-28 20:22:00,
2013-04-28 16:32:00,46.0,44.0,30.34,ESE,115,0.0,0.0,94,0.06,,,-99.99,,2013-04-28 20:32:00,
2013-04-28 16:42:00,46.0,44.0,30.34,ESE,115,0.0,0.0,94,0.06,,,-99.99,,2013-04-28 20:42:00,
2013-04-28 16:52:00,47.0,45.0,30.34,ESE,115,0.0,0.0,94,0.06,,,-99.99,,2013-04-28 20:52:00,
2013-04-28 17:01:00,47.0,45.0,30.33,ESE,115,0.0,0.0,94,0.05,,,-99.99,,2013-04-28 21:01:00,
2013-04-28 17:11:00,47.0,45.0,30.33,ESE,115,0.0,0.0,94,0.05,,,-99.99,,2013-04-28 21:11:00,
2013-04-28 17:22:00,47.0,45.0,30.33,ESE,115,0.0,0.0,94,0.05,,,-99.99,,2013-04-28 21:22:00,
2013-04-28 17:33:00,47.0,45.0,30.32,SSE,160,5.0,5.0,94,0.04,,,-99.99,,2013-04-28 21:33:00,
2013-04-28 17:42:00,47.0,45.0,30.32,SSE,160,5.0,5.0,94,0.04,,,-99.99,,2013-04-28 21:42:00,
2013-04-28 17:53:00,46.0,44.0,30.32,SE,125,0.0,4.0,94,0.03,,,-99.99,,2013-04-28 21:53:00,
2013-04-28 18:03:00,46.0,44.0,30.32,SSE,149,4.0,7.0,94,0.03,,,-99.99,,2013-04-28 22:03:00,
2013-04-28 18:12:00,46.0,44.0,30.32,SSE,149,4.0,7.0,94,0.03,,,-99.99,,2013-04-28 22:12:00,
2013-04-28 18:23:00,46.0,44.0,30.32,SSE,149,4.0,7.0,94,0.03,,,-99.99,,2013-04-28 22:23:00,
2013-04-28 18:33:00,46.0,45.0,30.31,SSE,155,3.0,8.0,95,0.02,,,-99.99,,2013-04-28 22:33:00,
2013-04-28 18:42:00,46.0,45.0,30.31,SSE,155,3.0,8.0,95,0.02,,,-99.99,,2013-04-28 22:42:00,
2013-04-28 18:52:00,46.0,45.0,30.32,SE,131,2.0,7.0,95,0.01,,,-99.99,,2013-04-28 22:52:00,
2013-04-28 19:02:00,45.0,44.0,30.33,SSE,163,1.0,4.0,95,0.01,,,-99.99,,2013-04-28 23:02:00,
2013-04-28 19:12:00,45.0,44.0,30.33,SSE,163,1.0,4.0,95,0.01,,,-99.99,,2013-04-28 23:12:00,
2013-04-28 19:22:00,45.0,44.0,30.33,SSE,163,1.0,4.0,95,0.01,,,-99.99,,2013-04-28 23:22:00,
2013-04-28 19:32:00,45.0,44.0,30.33,SSE,163,1.0,4.0,95,0.01,,,-99.99,,2013-04-28 23:32:00,
2013-04-28 20:01:00,45.0,44.0,30.32,South,170,1.0,5.0,95,0.08,,,-99.99,,2013-04-29 00:01:00,
2013-04-28 20:11:00,45.0,44.0,30.32,South,170,1.0,5.0,95,0.08,,,-99.99,,2013-04-29 00:11:00,
2013-04-28 20:22:00,45.0,44.0,30.32,South,170,1.0,5.0,95,0.08,,,-99.99,,2013-04-29 00:22:00,
2013-04-28 20:32:00,45.0,44.0,30.30,SE,134,0.0,6.0,95,0.04,,,-99.99,,2013-04-29 00:32:00,
2013-04-28 20:42:00,45.0,44.0,30.30,SE,134,0.0,6.0,95,0.04,,,-99.99,,2013-04-29 00:42:00,
2013-04-28 20:52:00,45.0,44.0,30.29,SE,136,6.0,7.0,95,0.03,,,-99.99,,2013-04-29 00:52:00,
2013-04-28 21:01:00,45.0,44.0,30.28,SE,146,4.0,10.0,95,0.03,,,-99.99,,2013-04-29 01:01:00,
2013-04-28 21:12:00,45.0,44.0,30.29,SSE,159,5.0,9.0,95,0.02,,,-99.99,,2013-04-29 01:12:00,
2013-04-28 21:21:00,45.0,44.0,30.29,SSE,159,5.0,9.0,95,0.02,,,-99.99,,2013-04-29 01:21:00,
2013-04-28 21:32:00,45.0,44.0,30.29,SSE,159,5.0,9.0,95,0.02,,,-99.99,,2013-04-29 01:32:00,
2013-04-28 21:42:00,45.0,44.0,30.29,SSE,159,5.0,9.0,95,0.02,,,-99.99,,2013-04-29 01:42:00,
2013-04-28 21:52:00,45.0,44.0,30.29,SSE,159,5.0,9.0,95,0.02,,,-99.99,,2013-04-29 01:52:00,
2013-04-28 22:02:00,45.0,44.0,30.28,SE,146,5.0,14.0,95,0.01,,,-99.99,,2013-04-29 02:02:00,
2013-04-28 22:11:00,45.0,44.0,30.28,SE,146,5.0,14.0,95,0.01,,,-99.99,,2013-04-29 02:11:00,
2013-04-28 22:22:00,45.0,44.0,30.28,SE,146,5.0,14.0,95,0.01,,,-99.99,,2013-04-29 02:22:00,
2013-04-28 22:32:00,45.0,44.0,30.28,SSE,160,7.0,11.0,95,0.02,,,-99.99,,2013-04-29 02:32:00,
2013-04-28 22:42:00,45.0,44.0,30.28,SSE,160,7.0,11.0,95,0.02,,,-99.99,,2013-04-29 02:42:00,
2013-04-28 22:52:00,45.0,44.0,30.28,SSE,160,7.0,11.0,95,0.02,,,-99.99,,2013-04-29 02:52:00,
2013-04-28 23:01:00,45.0,44.0,30.29,SE,128,2.0,6.0,95,0.01,,,-99.99,,2013-04-29 03:01:00,
2013-04-28 23:12:00,45.0,44.0,30.29,SE,128,2.0,6.0,95,0.01,,,-99.99,,2013-04-29 03:12:00,
2013-04-28 23:22:00,45.0,44.0,30.29,WSW,250,3.0,4.0,95,0.01,,,-99.99,,2013-04-29 03:22:00,
2013-04-28 23:33:00,45.0,44.0,30.29,SSE,148,0.0,5.0,95,0.00,,,-99.99,,2013-04-29 03:33:00,
2013-04-28 23:42:00,45.0,44.0,30.29,SSE,148,0.0,5.0,95,0.00,,,-99.99,,2013-04-29 03:42:00,
2013-04-28 23:52:00,45.0,44.0,30.30,WNW,287,2.0,3.0,95,0.00,,,-99.99,,2013-04-29 03:52:00,